Location: Springfield
(37.2150°N, 93.2980°W)
Time: 02:46:29
(UTC-05:00)

Cosmos 1869 - Pass Details

Date: 19 April 2018
Orbit: 533 x 552 km, 82.5° (Epoch: 22 October)

Event Time Altitude Azimuth Distance (km) Brightness Sun altitude
Exits shadow 22:13:06 58° 313° (NW) 648 3.8 -25.7°
Drops below altitude 10° 22:16:41 10° 0° (N) 1,834 6.5 -26.2°
Sets 22:18:52 0° 4° (N) 2,731 7.4 -26.6°
